Location: Wangen+im+Allg�u
(47.7098°N, 9.8383°E)
Time: 06:33:51
(UTC+01:00)

ISS - Pass Details

Date: 13 November 2017
Orbit: 402 x 407 km, 51.6° (Epoch: 23 November)

Event Time Altitude Azimuth Distance (km) Brightness Sun altitude
Exits shadow 05:02:22 37° 65° (ENE) 649 -2.4 -23.6°
Drops below altitude 10° 05:04:38 10° 92° (E) 1,455 0.1 -23.3°
Sets 05:06:44 0° 97° (E) 2,313 1.5 -22.9°
